Ketchikan, AK

8:47 AM AKST on November 13, 2018 (GMT -0900)
Ketchikan International

Weather History for PAKT - August, 2018

Change the Weather History Date:

Tuesday, August 28, 2018

  Actual Average Record
Temperature  
Mean Temperature 60 °F -  
Max Temperature 64 °F 62 °F 81 °F (1967)
Min Temperature 55 °F 49 °F 23 °F (1971)
Degree Days  
Heating Degree Days 6    
Growing Degree Days 10 (Base 50)    
Moisture  
Dew Point 55 °F    
Average Humidity 91    
Maximum Humidity 100    
Minimum Humidity 65    
Precipitation  
Precipitation 0.14 in - - ()
Sea Level Pressure  
Sea Level Pressure 29.98 in    
Wind  
Wind Speed 5 mph (SE)    
Max Wind Speed 16 mph    
Max Gust Speed -    
Visibility 8 miles    
Events Rain    
Averages and records for this station are not official NWS values.
T = Trace of Precipitation, MM = Missing Value Source: NWS Daily Summary

Daily Weather History Graph

Daily Weather History Graph

Search for Another Location

Airport or City:

Astronomy

Aug. 28, 2018 Rise Set
Actual Time 5:45 AM AKDT 7:49 PM AKDT
Civil Twilight 5:05 AM AKDT 8:28 PM AKDT
Nautical Twilight 4:15 AM AKDT 9:18 PM AKDT
Astronomical Twilight 3:16 AM AKDT 10:16 PM AKDT
Moon 8:58 PM AKDT (8/28) 8:01 AM AKDT (8/28)
Length of Visible Light 15h 22m
Length of Day
14h 04m
Waning Gibbous, 95% of the Moon is Illuminated
Aug 28
Waning Gibbous
Sep 2
Last Quarter
Sep 9
New
Sep 16
First Quarter
Sep 24
Full

Hourly Weather History & Observations

Time (AKDT) Temp. Dew Point Humidity Pressure Visibility Wind Dir Wind Speed Gust Speed Precip Events Conditions
12:35 AM 57.9 °F 55.9 °F 93% 30.13 in 10.0 mi Calm Calm - N/A   Overcast
12:50 AM 59.0 °F 57.2 °F 94% 30.12 in 10.0 mi South 3.5 mph - N/A   Overcast
12:53 AM 59.0 °F 57.0 °F 93% 30.13 in 10.0 mi Calm Calm - N/A   Overcast
1:53 AM 57.9 °F 55.9 °F 93% 30.11 in 10.0 mi ESE 5.8 mph - N/A   Overcast
2:23 AM 57.9 °F 57.0 °F 97% 30.10 in 9.0 mi SSE 5.8 mph - N/A   Overcast
2:48 AM 57.2 °F 57.2 °F 100% 30.10 in 8.0 mi Calm Calm - N/A   Overcast
2:53 AM 57.9 °F 55.9 °F 93% 30.10 in 7.0 mi South 3.5 mph - N/A   Overcast
3:32 AM 57.9 °F 57.0 °F 97% 30.08 in 10.0 mi South 4.6 mph - N/A   Overcast
3:53 AM 57.9 °F 57.0 °F 97% 30.08 in 10.0 mi SSE 3.5 mph - N/A   Overcast
4:04 AM 59.0 °F 57.0 °F 93% 30.08 in 10.0 mi South 4.6 mph - N/A   Overcast
4:53 AM 57.9 °F 57.0 °F 97% 30.07 in 7.0 mi SSE 6.9 mph - 0.00 in Rain Light Rain
5:53 AM 57.9 °F 57.0 °F 97% 30.05 in 6.0 mi SSE 4.6 mph - 0.08 in Rain Light Rain
6:12 AM 57.2 °F 57.2 °F 100% 30.03 in 4.0 mi SSE 6.9 mph - N/A Rain Rain
6:53 AM 57.2 °F 57.2 °F 100% 30.02 in 3.0 mi SE 10.4 mph - N/A Rain Light Rain
6:57 AM 57.9 °F 57.0 °F 97% 30.02 in 10.0 mi SE 9.2 mph - 0.00 in Rain Light Rain
7:45 AM 57.9 °F 55.9 °F 93% 30.00 in 5.0 mi SE 11.5 mph - 0.07 in Rain Rain
7:53 AM 57.2 °F 55.4 °F 94% 30.00 in 5.0 mi ESE 15.0 mph - N/A Rain Rain
8:53 AM 57.2 °F 55.4 °F 94% 29.97 in 6.0 mi SE 16.1 mph - N/A Rain Light Rain
9:53 AM 57.2 °F 55.4 °F 94% 29.96 in 6.0 mi ESE 16.1 mph - N/A Rain Light Rain
10:53 AM 60.8 °F 57.2 °F 88% 29.94 in 10.0 mi SE 8.1 mph - N/A   Overcast
12:53 PM 62.6 °F 57.2 °F 82% 29.91 in 10.0 mi ESE 13.8 mph - N/A Rain Light Rain
1:53 PM 64.4 °F 59.0 °F 83% 29.91 in 10.0 mi ESE 12.7 mph - N/A   Mostly Cloudy
2:53 PM 64.9 °F 55.9 °F 73% 29.90 in 10.0 mi Variable 5.8 mph - N/A   Overcast
3:53 PM 63.0 °F 51.1 °F 65% 29.90 in 10.0 mi West 8.1 mph - N/A   Mostly Cloudy
4:53 PM 63.0 °F 52.0 °F 67% 29.90 in 10.0 mi Calm Calm - N/A   Overcast
5:53 PM 60.1 °F 53.1 °F 78% 29.90 in 10.0 mi Variable 4.6 mph - 0.01 in Rain Light Rain
6:53 PM 57.2 °F 55.4 °F 94% 29.90 in 10.0 mi SE 5.8 mph - N/A   Overcast
7:53 PM 57.2 °F 53.6 °F 88% 29.90 in 10.0 mi SSE 4.6 mph - N/A   Overcast
8:53 PM 57.2 °F 53.6 °F 88% 29.90 in 8.0 mi ESE 9.2 mph - N/A Rain Light Rain
9:16 PM 55.9 °F 54.0 °F 93% 29.89 in 9.0 mi ESE 8.1 mph - 0.02 in Rain Light Rain
9:28 PM 55.9 °F 54.0 °F 93% 29.89 in 8.0 mi SE 6.9 mph - 0.02 in Rain Light Rain
9:35 PM 55.9 °F 54.0 °F 93% 29.89 in 7.0 mi SE 5.8 mph - 0.03 in Rain Light Rain
9:44 PM 55.9 °F 54.0 °F 93% 29.89 in 7.0 mi SE 4.6 mph - 0.03 in Rain Light Rain
9:53 PM 55.9 °F 54.0 °F 93% 29.89 in 9.0 mi SE 4.6 mph - 0.03 in Rain Light Rain
10:40 PM 55.9 °F 54.0 °F 93% 29.89 in 10.0 mi SE 6.9 mph - 0.02 in Rain Light Rain
10:53 PM 55.9 °F 54.0 °F 93% 29.89 in 10.0 mi SE 5.8 mph - 0.02 in Rain Light Rain
11:00 PM 55.9 °F 54.0 °F 93% 29.89 in 10.0 mi SE 5.8 mph - 0.00 in Rain Light Rain
11:53 PM 55.9 °F 54.0 °F 93% 29.89 in 10.0 mi SSE 4.6 mph - 0.00 in   Overcast